CZ-3C DEB, 40196

Orbit data source: Space-Track

CZ-3C DEB, 40196 is space debris in HEO originally from a launch on Fri, 24 Feb 2012 UTC launched from the Xichang Space Center, China (XSC). Debris objects in space refer to the collection of defunct objects orbiting the Earth. Examples of debris include non-operational satellites, rocket bodies, and fragments generated from explosions, collisions, or faulty payload assembly.

Loading next visibility...
Identifier
40196, 2012-008F
Orbit
HEO
Country
Flag of CNCN / PRC
Related business
Manufacturer
CALT
Mission
Spacecraft
Bus & Motor
Unknown
Mass
Unknown
Launch date (UTC)
2012-02-24 (14 years ago)
Launch vehicle
Unknown
Launch site
Xichang Space Center, China (XSC)
Object type
Payload
Rocket body
Debris
Shape & HBR
Unknown shape, 0.2 m
Radar Cross Section
Medium (>0.1 m² and <1 m²)

Expand to show TLE details & history
Last TLE update: 2 days ago

TLE from 2 days ago
0 CZ-3C DEB
1 40196U 12008F   26171.33901641  .00000028  00000-0  26252-3 0  9995
2 40196  21.2842 214.0024 7077787  95.1178 341.7605  2.38483084109183
Epoch: 2026-06-20T08:08Z
TLE epoch observation values (Epoch: 2026-06-20T08:08:11.017Z)
Latitude
0.00001°
Longitude
-176.47791°
Altitude
6,188.34 km
Speed
6.826 km/s
True Right ascension
14h 16m 29s
True Declination
0° 00' 00"
Sunlit
Object was in daylight at epoch
Visualization orbit readout
Latitude
Unknown
Longitude
Unknown
Altitude
Unknown
Speed
Unknown
Apparent Right ascension
Unknown
Apparent Declination
Unknown
Sunlit
N/A
Visualization observer readout
Local Sidereal Time
00:07:55
Azimuth
Unknown
Elevation
Unknown
Doppler factor
Unknown
Orbital elements
Apogee altitude
34,042.801 km
Perigee altitude
538.367 km
Semi-major axis
23,668.721 km
Eccentricity
0.70778
Inclination
21.2842°
RAAN
214.0024°
Arg. of periapsis
95.1178°
True anomaly
264.8427°
Mean anomaly
341.7605°
Eccentric anomaly
311.29003°
Mean motion
0.59605 °/min
Orbital period
603.98 mins
BSTAR
0.00026252
Loading maneuver chart data...
Computing Atmospheric mass density...
Loading historical data...
Loading historical data...
Loading historical data...
Loading historical data...
Loading historical data...
Loading historical data...
Loading historical data...

Documentation

Showing up to 5 results
|